Location: Baumgarten
(49.0970°N, 12.7493°E)
Time: 08:31:07
(UTC+00:00)

SL-16 R/B - Pass Details

Date: 05 July 2020
Orbit: 842 x 846 km, 71.0° (Epoch: 04 August)

Event Time Altitude Azimuth Distance (km) Brightness Sun altitude
Rises 20:51:50 0° 244° (WSW) 3,397 5.4 -11.6°
Reaches altitude 10° 20:54:37 10° 256° (WSW) 2,466 4.9 -11.8°
Maximum altitude 20:59:27 28° 315° (NW) 1,538 4.4 -12.2°
Drops below altitude 10° 21:04:19 10° 13° (NNE) 2,479 5.3 -12.6°
Sets 21:07:08 0° 25° (NNE) 3,418 5.9 -12.9°
